Regional Weather Roundup
Issued by NWS

Home | Current Version | Previous Version | Graphics & Text | Print | Product List | Glossary On
Versions: 1 2 3 4 5 6 7 8 9 10 11 12 13 14 15 16 17 18 19 20 21 22 23 24 25 26 27 28 29 30 31 32 33 34 35 36 37 38 39 40 41 42 43 44 45 46 47 48 49 50
000
ASUS43 KFSD 220302
RWRSD

WEATHER ROUNDUP FOR SOUTH DAKOTA
NATIONAL WEATHER SERVICE SIOUX FALLS SD
1000 PM CDT THU MAY 21 2015

NOTE: "FAIR" INDICATES FEW OR NO CLOUDS BELOW 12,000 FEET WITH NO
SIGNIFICANT WEATHER AND/OR OBSTRUCTIONS TO VISIBILITY.


SDZ001>005-009-010-012>017-220400-
NORTHWEST AND NORTH CENTRAL SOUTH DAKOTA

CITY           SKY/WX    TMP DP  RH WIND       PRES   REMARKS
BUFFALO          N/A     54  31  41 SE13      30.07R
FAITH            N/A     51  33  50 S8        30.15R
MOBRIDGE       CLEAR     59  41  51 S3        30.10R
$$

SDZ012>016-024>037-041>051-057-063-072>074-220400-
SOUTHWEST AND SOUTH CENTRAL SOUTH DAKOTA

CITY           SKY/WX    TMP DP  RH WIND       PRES   REMARKS
RAPID CTY ARPT CLOUDY    54  43  66 S5        30.13S
PIERRE         CLEAR     59  35  40 S7        30.13R
CUSTER         CLOUDY    47  38  71 SE5       30.16S
ELLSWORTH AFB  PTCLDY    53  43  69 S6        30.12S
PHILIP         CLEAR     52  37  56 E5        30.14R
PINE RIDGE     CLOUDY    53  44  71 E5        30.14R
WINNER         FAIR      62  29  28 S3        30.16S
$$

SDZ004>011-016>023-039-040-220400-
NORTHEAST SOUTH DAKOTA

CITY           SKY/WX    TMP DP  RH WIND       PRES   REMARKS
ABERDEEN       CLEAR     60  43  53 E3        30.11R
WATERTOWN      CLEAR     58  35  42 N3        30.13R
BROOKINGS      CLEAR     61  36  39 CALM      30.14R
$$

SDZ017-020-022-023-036>040-048>070-220400-
SOUTHEAST SOUTH DAKOTA

CITY           SKY/WX    TMP DP  RH WIND       PRES   REMARKS
SIOUX FALLS    PTCLDY    58  39  49 CALM      30.12R
HURON          MOCLDY    61  40  45 NW7       30.12R
CHAMBERLAIN    CLEAR     50  40  67 SW9       30.15S
MITCHELL       CLEAR     62  40  44 W9        30.13R
YANKTON        CLEAR     61  39  44 W8        30.14R
$$

ABBREVIATIONS USED IN REMARKS
   TC - TEMPERATURE IN CELSIUS
  WCI - WIND CHILL INDEX
   HX - HEAT INDEX
  VSB - VISIBILITY




USA.gov is the U.S. government's official web portal to all federal, state and local government web resources and services.